Regional Weather Roundup
Issued by NWS

Home | Current Version | Previous Version | Text Only | Print | Product List | Glossary On
Versions: 1 2 3 4 5 6 7 8 9 10 11 12 13 14 15 16 17 18 19 20 21 22 23 24 25 26 27 28 29 30 31 32 33 34 35 36 37 38 39 40 41 42 43 44 45 46 47 48 49 50
000
ASCA42 TJSJ 291811
RWRPR
PUERTO RICO/U.S. VIRGIN ISLANDS HOURLY WEATHER ROUNDUP
NATIONAL WEATHER SERVICE SAN JUAN PR
200 PM AST FRI AUG 29 2014

PRZ001-004-291900-
PUERTO RICO

CITY           SKY/WX    TMP DP  RH WIND       PRES   REMARKS
SAN JUAN LMM   MOSUNNY   84  75  74 E15       30.02F HX  92
MAYAGUEZ       PTSUNNY   90  70  51 E9        30.00F HX  95
AGUADILLA      MOSUNNY   82  79  89 E8        30.02F HX  93
CEIBA          CLOUDY    77  73  88 NW5       30.06F
$$

PRZ006-007-291900-
U.S. VIRGIN ISLANDS

CITY           SKY/WX    TMP DP  RH WIND       PRES   REMARKS
$$

HOURLY WEATHER ROUNDUP FOR THE NEWS MEDIA

CITY           SKY/WX    TMP DP  RH WIND       PRES   REMARKS
MIAMI          MOSUNNY   91  76  61 SE13      30.04F HX 103
ORLANDO        HVY RAIN  80  73  79 SE8       30.05R
NEW YORK       MOSUNNY   77  50  38 S10       30.19S
NEWARK         MOSUNNY   77  48  35 VRB3      30.18S
CHICAGO        PTSUNNY   84  69  60 SW12      29.95F
HARTFORD       MOSUNNY   72  55  55 VRB7      30.17S
BOSTON         MOSUNNY   69  54  58 E13       30.21R
DALLAS         PTSUNNY   88  67  49 CALM      29.92F HX  91
PHILADELPHIA   PTSUNNY   79  49  34 SE8       30.18S


USA.gov is the U.S. government's official web portal to all federal, state and local government web resources and services.